Regional Weather Roundup
Issued by NWS

Home | Current Version | Previous Version | Text Only | Print | Product List | Glossary Off
Versions: 1 2 3 4 5 6 7 8 9 10 11 12 13 14 15 16 17 18 19 20 21 22 23 24 25 26 27 28 29 30 31 32 33 34 35 36 37 38 39 40 41 42 43 44 45 46 47 48 49 50

000
ASUS45 KABQ 221001
RWRNM
NEW MEXICO REGIONAL WEATHER ROUNDUP
NATIONAL WEATHER SERVICE ALBUQUERQUE NM
400 AM MDT FRI SEP 22 2017

NOTE: "FAIR" MEANS FEW OR NO CLOUDS BELOW 12,000 FEET AGL WITH NO
       SIGNIFICANT WEATHER OR OBSTRUCTIONS TO VISION.

      THIS PRODUCT IS RELEASED AS TWO VERSIONS.  ONE VERSION NEAR
      THE TOP OF THE HOUR CONTAINING PRELIMINARY DATA FROM ALBUQUERQUE
      AND OTHER STATIONS.  A FINAL VERSION WITH ADDITIONAL DATA IS
      ISSUED ABOUT 10 MINUTES AFTER THE HOUR.

NMZ501-503-504-510>518-221100-
NORTHWEST PLATEAU/NORTHCENTRAL MOUNTAINS

CITY           SKY/WX    TMP DP  RH WIND       PRES   REMARKS
FARMINGTON     FAIR      58  36  43 E7        29.90S
LOS ALAMOS     FAIR      61  32  33 S5        30.04F
SANTA FE       FAIR      53  39  59 SW3       30.00S
TAOS           FAIR      57  34  41 S6        30.07R
ANGEL FIRE     FAIR      54  34  46 SW10      30.12S

$$
NMZ402-403-502-505>509-221100-
WESTCENTRAL MOUNTAINS/SOUTHWEST MOUNTAINS

CITY           SKY/WX    TMP DP  RH WIND       PRES   REMARKS
GALLUP         FAIR      55  36  48 S7        29.97F
GRANTS         FAIR      51  35  55 S3        30.01S
SILVER CITY    MOCLDY    65  40  40 CALM      30.00S

$$
NMZ407-409-411-412-221100-
SOUTHERN DESERTS

CITY           SKY/WX    TMP DP  RH WIND       PRES   REMARKS
DEMING         FAIR      59  37  44 NW5       29.93S
LAS CRUCES     FAIR      62  44  50 SW3       29.94S
HOLLOMAN AFB   FAIR      70  42  35 SE9       29.91S
ALAMOGORDO     FAIR      68  41  37 S8        29.91S
T OR C         FAIR      68  35  29 SW6       29.92S

$$
NMZ519>523-221100-
CENTRAL VALLEYS/CENTRAL HIGHLANDS

CITY           SKY/WX    TMP DP  RH WIND       PRES   REMARKS
ALBUQUERQUE    MOCLDY    63  37  38 SE9       29.96R
CLINES CORNERS FAIR      56  38  50 SW14      30.07S
BELEN          FAIR      61  34  36 S7        29.94S
SOCORRO        FAIR      62  36  37 N6        29.93R

$$
NMZ524>526-539-540-221100-
SOUTHCENTRAL MOUNTAINS

CITY           SKY/WX    TMP DP  RH WIND       PRES   REMARKS
RUIDOSO        FAIR      59  39  47 SW8       30.10S

$$
NMZ527>531-221100-
NORTHEAST HIGHLANDS/NORTHEAST PLAINS

CITY           SKY/WX    TMP DP  RH WIND       PRES   REMARKS
LAS VEGAS      FAIR      55  39  54 S13       30.03S
RATON          FAIR      52  39  61 SW6       29.96R
CLAYTON        FAIR      57  43  59 S12       29.91R

$$
NMZ532>537-221100-
EASTCENTRAL PLAINS

CITY           SKY/WX    TMP DP  RH WIND       PRES   REMARKS
SANTA ROSA     FAIR      66  42  41 S10       29.92R
TUCUMCARI      FAIR      72  58  61 S15G22    29.87S
CANNON AFB     CLEAR     69  69 100 S12       29.95R
CLOVIS AIRPORT FAIR      68  62  81 S12       29.95R

$$
NMZ028-029-538-221100-
SOUTHEAST PLAINS

CITY           SKY/WX    TMP DP  RH WIND       PRES   REMARKS
ROSWELL        FAIR      71  64  78 S8        29.89S
ARTESIA        FAIR      72  66  83 SE10      29.89R
CARLSBAD       FAIR      70  66  87 S5        29.86F
HOBBS          FAIR      72  64  78 S13       29.92F


$$




USA.gov is the U.S. government's official web portal to all federal, state and local government web resources and services.